Regional Weather Roundup
Issued by NWS

Home | Current Version | Previous Version | Text Only | Print | Product List | Glossary On
Versions: 1 2 3 4 5 6 7 8 9 10 11 12 13 14 15 16 17 18 19 20 21 22 23 24 25 26 27 28 29 30 31 32 33 34 35 36 37 38 39 40 41 42 43 44 45 46 47 48 49 50
168
ASUS43 KOAX 222002
RWRNE

WEATHER ROUNDUP FOR NEBRASKA
NATIONAL WEATHER SERVICE OMAHA NE
300 PM CDT WED MAR 22 2017

NOTES: SATELLITE DATA IS BEING USED TO AUGMENT CLOUD COVER ABOVE
       12000 FEET.
       "FAIR" INDICATES FEW OR NO CLOUDS BELOW 12,000 FEET WITH NO
       SIGNIFICANT WEATHER AND/OR OBSTRUCTIONS TO VISIBILITY.

  * THESE STATIONS DO NOT REPORT WEATHER SUCH AS RAIN...SNOW OR FOG.

NEZ001>004-019>022-054>056-222100-
NEBRASKA PANHANDLE

CITY           SKY/WX    TMP DP  RH WIND       PRES   REMARKS
SCOTTSBLUFF    SUNNY     64  33  31 SE15G22   29.88F
ALLIANCE       CLOUDY    60  35  39 S23G29    29.91F
CHADRON        CLOUDY    64  36  35 S18       29.84F
KIMBALL        SUNNY     65  37  36 S15       29.93F
SIDNEY         SUNNY     62  35  36 S20       29.95F
$$

NEZ057>060-069>072-079>082-222100-
SOUTHWEST NEBRASKA

CITY           SKY/WX    TMP DP  RH WIND       PRES   REMARKS
NORTH PLATTE   CLOUDY    49  28  44 S16G25    30.07F
IMPERIAL       SUNNY     58  34  40 SE21G31   30.00F
LEXINGTON      CLOUDY    50  26  40 S17G23    30.11F
MCCOOK         CLOUDY    51  31  46 S18       30.09F
OGALLALA       SUNNY     61  37  40 S21       29.99F
$$

NEZ005>010-023>029-035>040-094-222100-
NORTH CENTRAL NEBRASKA

CITY           SKY/WX    TMP DP  RH WIND       PRES   REMARKS
VALENTINE      CLOUDY    53  30  41 S24G38    29.98F
AINSWORTH      CLOUDY    47  30  50 S24G31    30.04F
BROKEN BOW     CLOUDY    49  24  37 S23G30    30.10F
O`NEILL          N/A    N/A N/A N/A MISG        N/A
ORD            CLOUDY    48  19  31 SE18G26   30.13F
THEDFORD       PTSUNNY   50  31  48 S25G33    30.04F
$$

NEZ041-046>049-061>064-073>077-083>087-222100-
SOUTH CENTRAL NEBRASKA

CITY           SKY/WX    TMP DP  RH WIND       PRES   REMARKS
GRAND ISLAND   CLOUDY    52  22  30 S20G26    30.17F
AURORA         CLOUDY    55  20  25 S17       30.18F
HASTINGS       CLOUDY    54  22  28 SE17      30.17F
HEBRON         CLOUDY    55  17  22 SE15G22   30.19F
HOLDREGE       CLOUDY    52  24  33 S18       30.12F
KEARNEY *      CLOUDY    54  25  32 S20G26    30.15F
YORK           PTSUNNY   54  18  24 SE14      30.19F
$$

NEZ011>018-030>034-042>045-222100-
NORTHEAST NEBRASKA

CITY           SKY/WX    TMP DP  RH WIND       PRES   REMARKS
NORFOLK        CLOUDY    48  18  30 SE21G28   30.20F
ALBION         CLOUDY    52  13  21 SE15G23   30.18F
BLAIR          CLOUDY    50  19  29 SE13G21   30.26F
FREMONT        CLOUDY    48  20  33 SE16      30.26F
TEKAMAH        CLOUDY    48  22  35 SE16      30.29F
WAYNE          CLOUDY    43  26  49 SE16      30.25F
$$

NEZ050>053-065>068-078-088>093-222100-
SOUTHEAST NEBRASKA

CITY           SKY/WX    TMP DP  RH WIND       PRES   REMARKS
LINCOLN        CLOUDY    53  19  26 SE16      30.26F
OMAHA EPPLEY   PTSUNNY   51  18  27 SE20      30.29F
BEATRICE       CLOUDY    57  20  23 SE9G22    30.22F
FALLS CITY     MOSUNNY   56  23  27 E14G24    30.26F
NEBRASKA CITY  CLOUDY    52  13  21 SE13G20   30.27F
PLATTSMOUTH    CLOUDY    49  16  27 SE15      30.28F
$$

NEZ044-045-051>053-067-222100-
OMAHA AREA

CITY           SKY/WX    TMP DP  RH WIND       PRES   REMARKS
OMAHA EPPLEY   PTSUNNY   51  18  27 SE20      30.29F
BLAIR          CLOUDY    50  19  29 SE13G21   30.26F
FREMONT        CLOUDY    48  20  33 SE16      30.26F
MILLARD        CLOUDY    50  26  39 SE14      30.28F
PLATTSMOUTH    CLOUDY    49  16  27 SE15      30.28F
WAHOO          CLOUDY    50  22  33 SE17G23   30.26F
$$




USA.gov is the U.S. government's official web portal to all federal, state and local government web resources and services.